Home > Weather > Manaus > Past weeks

Flag for Brazil Past Weather in Manaus, Amazonas, Brazil — Yesterday and Last 2 Weeks

Now
79 °F

Partly sunny.


Feels Like: 82 °F
Forecast: 77 / 88 °F
Wind: 1 mph from East

Location: Manaus Aeroporto

Current Time: May 25, 2016 at 9:08:08 AM

Latest Report: May 25, 2016 at 8:00 AM


Visibility: N/A

Pressure: 30.01 "Hg

Humidity: 84%

Dew Point: 73 °F

Location of ManausLocation

Past Weather in Manaus — Graph

°F

Manaus Temperature Yesterday

Maximum temperature yesterday: 82 °F (at 3:00 PM)
Minimum temperature yesterday: 77 °F (at 10:00 AM)
Average temperature yesterday: 80 °F

High & Low Weather Summary for the Past Weeks

 TemperatureHumidityPressure
High91 °F (May 18, 4:00 PM)94% (May 11, 6:00 AM)30.01 "Hg (May 11, 6:00 AM)
Low73 °F (May 13, 12:00 AM)52% (May 18, 4:00 PM)29.77 "Hg (May 17, 4:00 PM)
Average82 °F80%29.91 "Hg
* Reported May 10 8:00 AM — May 25 8:00 AM, Manaus, Weather by CustomWeather, © 2016

Note: Actual official high and low records may vary slightly from our data, if they occured in-between our weather recording intervals... More about our weather records

Advertising

Manaus Weather History for the Previous 24 Hours

Scroll right to see more
 ConditionsComfort  
Time TempWeatherWind HumidityBarometerVisibility
8:00 AM
Wed, May 25
79 °FBroken clouds.1 mph84%30.01 "HgN/A
7:00 AM79 °FBroken clouds.5 mph84%29.95 "HgN/A
6:00 AM79 °FBroken clouds.3 mph84%29.92 "HgN/A
5:00 AM77 °FPassing clouds.5 mph89%29.95 "HgN/A
4:00 AM77 °FPassing clouds.5 mph89%29.92 "HgN/A
3:00 AM77 °FPassing clouds.5 mph89%29.92 "HgN/A
2:00 AM77 °FPassing clouds.5 mph89%29.95 "HgN/A
1:00 AM79 °FPassing clouds.5 mph84%29.98 "HgN/A
12:00 AM79 °FPassing clouds.5 mph84%29.98 "HgN/A
11:00 PM
Tue, May 24
79 °FPassing clouds.3 mph84%29.98 "HgN/A
10:00 PM79 °FPassing clouds.9 mph84%30.01 "HgN/A
9:00 PM81 °FClear.1 mph84%29.98 "Hg10 mi
8:00 PM81 °FClear.2 mph84%29.95 "Hg10 mi
7:00 PM79 °FThundershowers. Passing clouds.No wind89%29.95 "HgN/A
6:00 PM81 °FThundershowers. Passing clouds.2 mph84%N/AN/A
5:00 PM82 °FScattered clouds.2 mph74%29.89 "HgN/A
4:00 PM82 °FScattered clouds.2 mph74%29.89 "HgN/A
3:00 PM82 °FScattered clouds.2 mph74%29.92 "HgN/A
2:00 PM81 °FPartly sunny.3 mph79%29.95 "HgN/A
1:00 PM81 °FPartly sunny.3 mph79%29.95 "HgN/A
12:00 PM81 °FScattered clouds.2 mph79%29.98 "HgN/A
11:00 AM79 °FScattered clouds.7 mph84%29.98 "HgN/A
10:00 AM77 °FLight rain. Scattered clouds.13 mph89%30.01 "Hg2 mi
9:00 AM81 °FScattered clouds.7 mph79%29.98 "HgN/A
Weather by CustomWeather, © 2016

See weather overviewHow to use our weather pages